Weather History for KVTA - March, 2013

Change the Weather History Date:

Monday, March 4, 2013

  Actual Average Record
Temperature  
Mean Temperature 27 °F -  
Max Temperature 39 °F 50 °F 80 °F (1976)
Min Temperature 15 °F 31 °F -3 °F (1943)
Degree Days  
Heating Degree Days 38    
Moisture  
Dew Point 17 °F    
Average Humidity 65    
Maximum Humidity 88    
Minimum Humidity 35    
Precipitation  
Precipitation 0.00 in - - ()
Sea Level Pressure  
Sea Level Pressure 30.12 in    
Wind  
Wind Speed 1 mph (WSW)    
Max Wind Speed 10 mph    
Max Gust Speed -    
Visibility 10 miles    
Events      
Averages and records for this station are not official NWS values.
T = Trace of Precipitation, MM = Missing Value Source: NWS Daily Summary

Daily Weather History Graph

Daily Weather History Graph

Search for Another Location

Airport or City:

Trip Planner

Search our weather history database for the weather conditions in past years. The results will help you decide how hot, cold, wet, or windy it might be!

Date:

Astronomy

Mar. 04, 2013 Rise Set
Actual Time 6:58 AM EST 6:25 PM EST
Civil Twilight 6:31 AM EST 6:52 PM EST
Nautical Twilight 5:59 AM EST 7:23 PM EST
Astronomical Twilight 5:28 AM EST 7:55 PM EST
Moon 1:06 AM EST (3/4) 11:05 AM EST (3/4)
Length of Visible Light 12h 21m
Length of Day
11h 26m
Waning Gibbous, 52% of the Moon is Illuminated
Mar 4
Waning Gibbous
Mar 4
Last Quarter
Mar 11
New
Mar 19
First Quarter
Mar 27
Full

Hourly Weather History & Observations

Time (EST) Temp. Windchill Dew Point Humidity Pressure Visibility Wind Dir Wind Speed Gust Speed Precip Events Conditions
12:54 AM 21.0 °F - 17.1 °F 85% 30.09 in 10.0 mi Calm Calm - N/A   Overcast
1:54 AM 19.0 °F - 15.1 °F 85% 30.11 in 10.0 mi Calm Calm - N/A   Mostly Cloudy
2:54 AM 18.0 °F - 14.0 °F 84% 30.11 in 10.0 mi Calm Calm - N/A   Clear
3:54 AM 18.0 °F - 14.0 °F 84% 30.11 in 9.0 mi Calm Calm - N/A   Clear
4:54 AM 16.0 °F - 12.0 °F 84% 30.12 in 9.0 mi Calm Calm - N/A   Clear
5:54 AM 17.1 °F - 12.0 °F 81% 30.14 in 10.0 mi Calm Calm - N/A   Clear
6:54 AM 15.1 °F - 10.9 °F 84% 30.15 in 10.0 mi Calm Calm - N/A   Clear
7:54 AM 19.0 °F - 16.0 °F 88% 30.17 in 9.0 mi Calm Calm - N/A   Clear
8:54 AM 26.1 °F - 19.9 °F 78% 30.18 in 10.0 mi Calm Calm - N/A   Clear
9:54 AM 28.0 °F - 18.0 °F 66% 30.18 in 10.0 mi Calm Calm - N/A   Clear
10:54 AM 30.9 °F 22.2 °F 17.1 °F 57% 30.17 in 10.0 mi West 10.4 mph - N/A   Clear
11:54 AM 32.0 °F 27.5 °F 18.0 °F 56% 30.15 in 10.0 mi West 4.6 mph - N/A   Clear
12:54 PM 35.1 °F - 17.1 °F 48% 30.13 in 10.0 mi Calm Calm - N/A   Clear
1:54 PM 37.0 °F 33.3 °F 17.1 °F 44% 30.11 in 10.0 mi WSW 4.6 mph - N/A   Clear
2:54 PM 37.9 °F - 12.9 °F 36% 30.09 in 10.0 mi Calm Calm - N/A   Clear
3:54 PM 39.9 °F 35.1 °F 14.0 °F 35% 30.09 in 10.0 mi SW 6.9 mph - N/A   Clear
4:54 PM 39.0 °F 36.8 °F 15.1 °F 38% 30.08 in 10.0 mi West 3.5 mph - N/A   Clear
5:54 PM 37.9 °F - 16.0 °F 41% 30.08 in 10.0 mi Calm Calm - N/A   Clear
6:54 PM 35.1 °F - 19.0 °F 52% 30.09 in 10.0 mi Calm Calm - N/A   Clear
7:54 PM 30.9 °F - 19.0 °F 61% 30.10 in 10.0 mi Calm Calm - N/A   Clear
8:54 PM 30.0 °F - 23.0 °F 75% 30.08 in 10.0 mi Calm Calm - N/A   Clear
9:54 PM 30.9 °F - 21.0 °F 67% 30.07 in 10.0 mi Calm Calm - N/A   Clear
10:54 PM 30.9 °F - 21.0 °F 67% 30.08 in 10.0 mi Calm Calm - N/A   Mostly Cloudy
11:54 PM 32.0 °F - 19.9 °F 61% 30.08 in 10.0 mi Calm Calm - N/A   Overcast